FENGYUN 4A

Last updated on Tue Jan 14 2025 00:02:17 GMT+0000 (Coordinated Universal Time)

1 41882U 16077A 25013.48161499 -.00000197 00000+0 00000+0 0 9993 2 41882 0.9950 85.6992 0010548 343.1065 304.1466 1.00268318 29719
UTC large
Height (km)
Speed (km/s)
/
Latitude / Longitude
Inclination (degrees)
Orbital Period (minutes)
Azimuth
Elevation
Range (km)
Doppler Factor

Next 0 passes for location: London (51.5072 / 0.1276)

Sorry there are no passes over London.